Location: Coll
(42.4728°N, 0.7714°E)
Time: 07:11:58
(UTC+00:00)

Cosmos 1833 Rocket - Pass Details

Date: 23 October 2020
Orbit: 832 x 840 km, 71.0° (Epoch: 23 November)

Event Time Altitude Azimuth Distance (km) Brightness Sun altitude
Rises 04:50:02 0° 196° (SSW) 3,374 5.7 -17.2°
Reaches altitude 10° 04:52:28 10° 194° (SSW) 2,445 5.0 -16.7°
Maximum altitude 04:58:03 72° 111° (ESE) 883 2.9 -15.7°
Drops below altitude 10° 05:03:41 10° 28° (NNE) 2,464 5.5 -14.7°
Sets 05:06:08 0° 27° (NNE) 3,403 6.2 -14.2°
